START_TIME,STEP,MOV.,M35,t_acc.,PL05,t_acc.,PL06,t_acc.,PL07,t_acc.
1979-08-03 18:00:22.620 ,0,1,0.,4.8,2.,4.8,0.,4.8,0.,4.8
1979-08-03 18:00:27.420 ,0,1,0.,4.8,5.,4.8,3.,4.8,0.,4.8
1979-08-03 18:00:32.220 ,0,1,0.,4.8,10.,4.8,1.,4.8,0.,4.8
1979-08-03 18:00:37.020 ,0,1,0.,4.8,12.,4.8,2.,4.8,0.,4.8
1979-08-03 18:00:41.820 ,0,1,0.,4.8,32.,4.8,1.,4.8,0.,4.8
1979-08-03 18:00:46.620 ,4,1,0.,4.8,19.,4.8,1.,4.8,0.,4.8
1979-08-03 18:00:51.420 ,4,1,0.,4.8,8.,4.8,1.,4.8,2.,4.8
1979-08-03 18:00:56.220 ,4,1,0.,4.8,3.,4.8,4.,4.8,0.,4.8
1979-08-03 18:01:01.020 ,4,1,0.,4.8,1.,4.8,0.,4.8,1.,4.8
1979-08-03 18:01:05.820 ,4,1,0.,4.8,4.,4.8,2.,4.8,0.,4.8
1979-08-03 18:01:10.620 ,7,1,0.,4.8,6.,4.8,0.,4.8,1.,4.8
1979-08-03 18:01:15.420 ,7,1,0.,4.8,3.,4.8,1.,4.8,0.,4.8
1979-08-03 18:01:20.220 ,7,1,0.,4.8,9.,4.8,1.,4.8,0.,4.8
1979-08-03 18:01:25.020 ,7,1,0.,4.8,0.,4.8,0.,4.8,0.,4.8
1979-08-03 18:01:29.820 ,7,1,0.,4.8,2.,4.8,0.,4.8,0.,4.8
1979-08-03 18:01:34.620 ,3,1,0.,4.8,2.,4.8,0.,4.8,1.,4.8
1979-08-03 18:01:39.420 ,3,1,0.,4.8,5.,4.8,3.,4.8,0.,4.8
1979-08-03 18:01:44.220 ,3,1,0.,4.8,1.,4.8,0.,4.8,0.,4.8
1979-08-03 18:01:49.020 ,3,1,0.,4.8,7.,4.8,2.,4.8,0.,4.8
1979-08-03 18:01:53.820 ,3,1,0.,4.8,2.,4.8,1.,4.8,0.,4.8
1979-08-03 18:01:58.620 ,0,1,0.,4.8,3.,4.8,0.,4.8,0.,4.8
1979-08-03 18:02:03.420 ,0,1,0.,4.8,5.,4.8,1.,4.8,0.,4.8
1979-08-03 18:02:08.220 ,0,1,0.,4.8,7.,4.8,1.,4.8,0.,4.8
1979-08-03 18:02:13.020 ,0,1,0.,4.8,14.,4.8,1.,4.8,0.,4.8
1979-08-03 18:02:17.820 ,0,1,0.,4.8,19.,4.8,1.,4.8,0.,4.8
1979-08-03 18:02:22.620 ,4,1,0.,4.8,12.,4.8,1.,4.8,1.,4.8
1979-08-03 18:02:27.420 ,4,1,0.,4.8,2.,4.8,0.,4.8,1.,4.8
1979-08-03 18:02:32.220 ,4,1,0.,4.8,8.,4.8,2.,4.8,0.,4.8
1979-08-03 18:02:37.020 ,4,1,0.,4.8,3.,4.8,1.,4.8,0.,4.8
1979-08-03 18:02:41.820 ,4,1,0.,4.8,3.,4.8,1.,4.8,0.,4.8
1979-08-03 18:02:46.620 ,7,1,0.,4.8,2.,4.8,0.,4.8,0.,4.8
1979-08-03 18:02:51.420 ,7,1,0.,4.8,5.,4.8,1.,4.8,0.,4.8
1979-08-03 18:02:56.220 ,7,1,0.,4.8,4.,4.8,4.,4.8,0.,4.8
1979-08-03 18:03:01.020 ,7,1,0.,4.8,1.,4.8,0.,4.8,0.,4.8
1979-08-03 18:03:05.820 ,7,1,0.,4.8,0.,4.8,0.,4.8,0.,4.8
1979-08-03 18:03:10.620 ,3,1,0.,4.8,1.,4.8,0.,4.8,0.,4.8
1979-08-03 18:03:15.420 ,3,1,0.,4.8,6.,4.8,0.,4.8,0.,4.8
1979-08-03 18:03:20.220 ,3,1,0.,4.8,4.,4.8,2.,4.8,0.,4.8
1979-08-03 18:03:25.020 ,3,1,0.,4.8,3.,4.8,1.,4.8,0.,4.8
1979-08-03 18:03:29.820 ,3,1,0.,4.8,7.,4.8,1.,4.8,0.,4.8
1979-08-03 18:03:34.620 ,0,1,0.,4.8,7.,4.8,1.,4.8,0.,4.8
1979-08-03 18:03:39.420 ,0,1,0.,4.8,6.,4.8,3.,4.8,1.,4.8
1979-08-03 18:03:44.220 ,0,1,0.,4.8,8.,4.8,2.,4.8,1.,4.8
1979-08-03 18:03:49.020 ,0,1,0.,4.8,18.,4.8,0.,4.8,2.,4.8
1979-08-03 18:03:53.820 ,0,1,0.,4.8,12.,4.8,2.,4.8,0.,4.8
1979-08-03 18:03:58.620 ,4,1,0.,4.8,9.,4.8,0.,4.8,2.,4.8
1979-08-03 18:04:03.420 ,4,1,0.,4.8,8.,4.8,3.,4.8,1.,4.8
1979-08-03 18:04:08.220 ,4,1,0.,4.8,3.,4.8,1.,4.8,1.,4.8
1979-08-03 18:04:13.020 ,4,1,0.,4.8,2.,4.8,2.,4.8,0.,4.8
1979-08-03 18:04:17.820 ,4,1,0.,4.8,3.,4.8,0.,4.8,1.,4.8
1979-08-03 18:04:22.620 ,7,1,0.,4.8,3.,4.8,1.,4.8,1.,4.8
1979-08-03 18:04:27.420 ,7,1,0.,4.8,5.,4.8,0.,4.8,1.,4.8
1979-08-03 18:04:32.220 ,7,1,0.,4.8,6.,4.8,0.,4.8,0.,4.8
1979-08-03 18:04:37.020 ,7,1,0.,4.8,2.,4.8,0.,4.8,0.,4.8
1979-08-03 18:04:41.820 ,7,1,0.,4.8,1.,4.8,0.,4.8,0.,4.8
1979-08-03 18:04:46.620 ,3,1,0.,4.8,0.,4.8,0.,4.8,1.,4.8
1979-08-03 18:04:51.420 ,3,1,0.,4.8,8.,4.8,1.,4.8,1.,4.8
1979-08-03 18:04:56.220 ,3,1,0.,4.8,5.,4.8,0.,4.8,0.,4.8
1979-08-03 18:05:01.020 ,3,1,0.,4.8,3.,4.8,1.,4.8,0.,4.8
1979-08-03 18:05:05.820 ,3,1,0.,4.8,2.,4.8,2.,4.8,1.,4.8
1979-08-03 18:05:10.620 ,0,1,0.,4.8,2.,4.8,0.,4.8,2.,4.8
1979-08-03 18:05:15.420 ,0,1,0.,4.8,8.,4.8,0.,4.8,0.,4.8
1979-08-03 18:05:20.220 ,0,1,0.,4.8,9.,4.8,3.,4.8,0.,4.8
1979-08-03 18:05:25.020 ,0,1,0.,4.8,14.,4.8,0.,4.8,2.,4.8
1979-08-03 18:05:29.820 ,0,1,0.,4.8,17.,4.8,1.,4.8,0.,4.8
1979-08-03 18:05:34.620 ,0,0,0.,4.8,17.,4.8,0.,4.8,1.,4.8
1979-08-03 18:05:39.420 ,0,0,0.,4.8,12.,4.8,2.,4.8,1.,4.8
1979-08-03 18:05:44.220 ,0,0,0.,4.8,5.,4.8,0.,4.8,1.,4.8
1979-08-03 18:05:49.020 ,0,0,0.,4.8,4.,4.8,3.,4.8,0.,4.8
1979-08-03 18:05:53.820 ,0,0,0.,4.8,6.,4.8,0.,4.8,0.,4.8
1979-08-03 18:05:58.620 ,0,0,0.,4.8,7.,4.8,0.,4.8,0.,4.8
1979-08-03 18:06:03.420 ,0,0,0.,4.8,6.,4.8,0.,4.8,0.,4.8
1979-08-03 18:06:08.220 ,0,0,0.,4.8,10.,4.8,0.,4.8,0.,4.8
1979-08-03 18:06:13.020 ,0,0,0.,4.8,2.,4.8,0.,4.8,0.,4.8
1979-08-03 18:06:17.820 ,0,0,0.,4.8,0.,4.8,1.,4.8,0.,4.8
1979-08-03 18:06:22.620 ,5,0,0.,4.8,1.,4.8,0.,4.8,0.,4.8
1979-08-03 18:06:27.420 ,5,0,0.,4.8,7.,4.8,1.,4.8,0.,4.8
1979-08-03 18:06:32.220 ,5,0,0.,4.8,2.,4.8,1.,4.8,0.,4.8
1979-08-03 18:06:37.020 ,5,0,0.,4.8,3.,4.8,0.,4.8,2.,4.8
1979-08-03 18:06:41.820 ,5,0,0.,4.8,2.,4.8,0.,4.8,0.,4.8
1979-08-03 18:06:46.620 ,5,0,0.,4.8,6.,4.8,0.,4.8,1.,4.8
1979-08-03 18:06:51.420 ,5,0,0.,4.8,3.,4.8,1.,4.8,1.,4.8
1979-08-03 18:06:56.220 ,5,0,0.,4.8,5.,4.8,0.,4.8,2.,4.8
1979-08-03 18:07:01.020 ,5,0,0.,4.8,4.,4.8,2.,4.8,0.,4.8
1979-08-03 18:07:05.820 ,5,0,0.,4.8,1.,4.8,0.,4.8,0.,4.8
1979-08-03 18:07:10.620 ,4,0,0.,4.8,11.,4.8,1.,4.8,1.,4.8
1979-08-03 18:07:15.420 ,4,0,0.,4.8,3.,4.8,1.,4.8,0.,4.8
1979-08-03 18:07:20.220 ,4,0,0.,4.8,8.,4.8,1.,4.8,1.,4.8
1979-08-03 18:07:25.020 ,4,0,0.,4.8,6.,4.8,1.,4.8,0.,4.8
1979-08-03 18:07:29.820 ,4,0,0.,4.8,6.,4.8,1.,4.8,0.,4.8
1979-08-03 18:07:34.620 ,4,0,0.,4.8,7.,4.8,0.,4.8,0.,4.8
1979-08-03 18:07:39.420 ,4,0,0.,4.8,4.,4.8,0.,4.8,0.,4.8
1979-08-03 18:07:44.220 ,4,0,0.,4.8,2.,4.8,0.,4.8,0.,4.8
1979-08-03 18:07:49.020 ,4,0,0.,4.8,5.,4.8,2.,4.8,0.,4.8
1979-08-03 18:07:53.820 ,4,0,0.,4.8,3.,4.8,0.,4.8,0.,4.8
1979-08-03 18:07:58.620 ,3,0,0.,4.8,2.,4.8,0.,4.8,1.,4.8
1979-08-03 18:08:03.420 ,3,0,0.,4.8,1.,4.8,1.,4.8,1.,4.8
1979-08-03 18:08:08.220 ,3,0,0.,4.8,4.,4.8,0.,4.8,1.,4.8
1979-08-03 18:08:13.020 ,3,0,0.,4.8,5.,4.8,3.,4.8,0.,4.8
1979-08-03 18:08:17.820 ,3,0,0.,4.8,4.,4.8,0.,4.8,0.,4.8
1979-08-03 18:08:22.620 ,3,0,0.,4.8,2.,4.8,1.,4.8,0.,4.8
1979-08-03 18:08:27.420 ,3,0,0.,4.8,3.,4.8,0.,4.8,0.,4.8
1979-08-03 18:08:32.220 ,3,0,0.,4.8,2.,4.8,0.,4.8,0.,4.8
1979-08-03 18:08:37.020 ,3,0,0.,4.8,3.,4.8,0.,4.8,0.,4.8
1979-08-03 18:08:41.820 ,3,0,0.,4.8,2.,4.8,0.,4.8,0.,4.8
1979-08-03 18:08:46.620 ,2,0,0.,4.8,7.,4.8,1.,4.8,0.,4.8
1979-08-03 18:08:51.420 ,2,0,0.,4.8,5.,4.8,0.,4.8,1.,4.8
1979-08-03 18:08:56.220 ,2,0,0.,4.8,10.,4.8,0.,4.8,1.,4.8
1979-08-03 18:09:01.020 ,2,0,0.,4.8,8.,4.8,1.,4.8,1.,4.8
1979-08-03 18:09:05.820 ,2,0,0.,4.8,6.,4.8,1.,4.8,0.,4.8
1979-08-03 18:09:10.620 ,2,0,0.,4.8,11.,4.8,2.,4.8,0.,4.8
1979-08-03 18:09:15.420 ,2,0,0.,4.8,3.,4.8,4.,4.8,1.,4.8
1979-08-03 18:09:20.220 ,2,0,0.,4.8,6.,4.8,0.,4.8,0.,4.8
1979-08-03 18:09:25.020 ,2,0,0.,4.8,5.,4.8,3.,4.8,0.,4.8
1979-08-03 18:09:29.820 ,2,0,0.,4.8,6.,4.8,0.,4.8,0.,4.8
1979-08-03 18:09:34.620 ,1,0,0.,4.8,4.,4.8,0.,4.8,1.,4.8
1979-08-03 18:09:39.420 ,1,0,0.,4.8,10.,4.8,1.,4.8,1.,4.8
1979-08-03 18:09:44.220 ,1,0,0.,4.8,5.,4.8,0.,4.8,0.,4.8
1979-08-03 18:09:49.020 ,1,0,0.,4.8,5.,4.8,0.,4.8,0.,4.8
1979-08-03 18:09:53.820 ,1,0,0.,4.8,9.,4.8,0.,4.8,1.,4.8
1979-08-03 18:09:58.620 ,1,0,0.,4.8,9.,4.8,0.,4.8,1.,4.8
1979-08-03 18:10:03.420 ,1,0,0.,4.8,13.,4.8,2.,4.8,1.,4.8
1979-08-03 18:10:08.220 ,1,0,0.,4.8,7.,4.8,0.,4.8,1.,4.8
1979-08-03 18:10:13.020 ,1,0,0.,4.8,10.,4.8,1.,4.8,1.,4.8
1979-08-03 18:10:17.820 ,1,0,0.,4.8,5.,4.8,1.,4.8,0.,4.8
1979-08-03 18:10:22.620 ,0,0,0.,4.8,10.,4.8,1.,4.8,2.,4.8
1979-08-03 18:10:27.420 ,0,0,0.,4.8,12.,4.8,2.,4.8,0.,4.8
1979-08-03 18:10:32.220 ,0,0,0.,4.8,16.,4.8,1.,4.8,0.,4.8
1979-08-03 18:10:37.020 ,0,0,0.,4.8,10.,4.8,1.,4.8,1.,4.8
1979-08-03 18:10:41.820 ,0,0,0.,4.8,12.,4.8,0.,4.8,0.,4.8
1979-08-03 18:10:46.620 ,0,0,0.,4.8,13.,4.8,1.,4.8,0.,4.8
1979-08-03 18:10:51.420 ,0,0,0.,4.8,18.,4.8,2.,4.8,0.,4.8
1979-08-03 18:10:56.220 ,0,0,0.,4.8,7.,4.8,1.,4.8,0.,4.8
1979-08-03 18:11:01.020 ,0,0,0.,4.8,9.,4.8,2.,4.8,0.,4.8
1979-08-03 18:11:05.820 ,0,0,0.,4.8,7.,4.8,1.,4.8,0.,4.8
1979-08-03 18:11:10.620 ,0,0,0.,4.8,9.,4.8,2.,4.8,0.,4.8
1979-08-03 18:11:15.420 ,0,0,0.,4.8,12.,4.8,2.,4.8,0.,4.8
1979-08-03 18:11:20.220 ,0,0,0.,4.8,11.,4.8,2.,4.8,1.,4.8
1979-08-03 18:11:25.020 ,0,0,0.,4.8,8.,4.8,2.,4.8,0.,4.8
1979-08-03 18:11:29.820 ,0,0,0.,4.8,10.,4.8,0.,4.8,0.,4.8
1979-08-03 18:11:34.620 ,0,0,0.,4.8,11.,4.8,1.,4.8,1.,4.8
1979-08-03 18:11:39.420 ,0,0,0.,4.8,11.,4.8,1.,4.8,4.,4.8
1979-08-03 18:11:44.220 ,0,0,0.,4.8,12.,4.8,0.,4.8,0.,4.8
1979-08-03 18:11:49.020 ,0,0,0.,4.8,17.,4.8,3.,4.8,0.,4.8
1979-08-03 18:11:53.820 ,0,0,0.,4.8,18.,4.8,0.,4.8,3.,4.8
1979-08-03 18:11:58.620 ,1,0,0.,4.8,10.,4.8,2.,4.8,0.,4.8
1979-08-03 18:12:03.420 ,1,0,0.,4.8,10.,4.8,0.,4.8,1.,4.8
1979-08-03 18:12:08.220 ,1,0,0.,4.8,8.,4.8,0.,4.8,0.,4.8
1979-08-03 18:12:13.020 ,1,0,0.,4.8,17.,4.8,1.,4.8,0.,4.8
1979-08-03 18:12:17.820 ,1,0,0.,4.8,11.,4.8,0.,4.8,0.,4.8
1979-08-03 18:12:22.620 ,1,0,0.,4.8,9.,4.8,1.,4.8,0.,4.8
1979-08-03 18:12:27.420 ,1,0,0.,4.8,8.,4.8,2.,4.8,1.,4.8
1979-08-03 18:12:32.220 ,1,0,0.,4.8,5.,4.8,3.,4.8,1.,4.8
1979-08-03 18:12:37.020 ,1,0,0.,4.8,6.,4.8,0.,4.8,1.,4.8
1979-08-03 18:12:41.820 ,1,0,0.,4.8,7.,4.8,0.,4.8,1.,4.8
1979-08-03 18:12:46.620 ,2,0,0.,4.8,4.,4.8,1.,4.8,0.,4.8
1979-08-03 18:12:51.420 ,2,0,0.,4.8,8.,4.8,2.,4.8,0.,4.8
1979-08-03 18:12:56.220 ,2,0,0.,4.8,1.,4.8,0.,4.8,0.,4.8
1979-08-03 18:13:01.020 ,2,0,0.,4.8,4.,4.8,0.,4.8,0.,4.8
1979-08-03 18:13:05.820 ,2,0,0.,4.8,3.,4.8,2.,4.8,0.,4.8
1979-08-03 18:13:10.620 ,2,0,0.,4.8,6.,4.8,1.,4.8,0.,4.8
1979-08-03 18:13:15.420 ,2,0,0.,4.8,5.,4.8,1.,4.8,0.,4.8
1979-08-03 18:13:20.220 ,2,0,0.,4.8,3.,4.8,1.,4.8,0.,4.8
1979-08-03 18:13:25.020 ,2,0,0.,4.8,5.,4.8,0.,4.8,0.,4.8
1979-08-03 18:13:29.820 ,2,0,0.,4.8,8.,4.8,2.,4.8,0.,4.8
1979-08-03 18:13:34.620 ,3,0,0.,4.8,5.,4.8,1.,4.8,0.,4.8
1979-08-03 18:13:39.420 ,3,0,0.,4.8,7.,4.8,1.,4.8,1.,4.8
1979-08-03 18:13:44.220 ,3,0,0.,4.8,1.,4.8,1.,4.8,0.,4.8
1979-08-03 18:13:49.020 ,3,0,0.,4.8,5.,4.8,2.,4.8,1.,4.8
1979-08-03 18:13:53.820 ,3,0,0.,4.8,1.,4.8,1.,4.8,0.,4.8
1979-08-03 18:13:58.620 ,3,0,0.,4.8,4.,4.8,1.,4.8,0.,4.8
1979-08-03 18:14:03.420 ,3,0,0.,4.8,6.,4.8,1.,4.8,1.,4.8
1979-08-03 18:14:08.220 ,3,0,0.,4.8,6.,4.8,2.,4.8,1.,4.8
1979-08-03 18:14:13.020 ,3,0,0.,4.8,1.,4.8,1.,4.8,0.,4.8
1979-08-03 18:14:17.820 ,3,0,0.,4.8,2.,4.8,2.,4.8,1.,4.8
1979-08-03 18:14:22.620 ,4,0,0.,4.8,1.,4.8,0.,4.8,0.,4.8
1979-08-03 18:14:27.420 ,4,0,0.,4.8,1.,4.8,2.,4.8,2.,4.8
1979-08-03 18:14:32.220 ,4,0,0.,4.8,7.,4.8,0.,4.8,0.,4.8
1979-08-03 18:14:37.020 ,4,0,0.,4.8,4.,4.8,0.,4.8,0.,4.8
1979-08-03 18:14:41.820 ,4,0,0.,4.8,3.,4.8,0.,4.8,0.,4.8
1979-08-03 18:14:46.620 ,4,0,0.,4.8,7.,4.8,0.,4.8,0.,4.8
1979-08-03 18:14:51.420 ,4,0,0.,4.8,6.,4.8,0.,4.8,1.,4.8
1979-08-03 18:14:56.220 ,4,0,0.,4.8,2.,4.8,0.,4.8,1.,4.8
1979-08-03 18:15:01.020 ,4,0,0.,4.8,2.,4.8,2.,4.8,0.,4.8
1979-08-03 18:15:05.820 ,4,0,0.,4.8,1.,4.8,1.,4.8,0.,4.8
1979-08-03 18:15:10.620 ,5,0,0.,4.8,1.,4.8,0.,4.8,0.,4.8
1979-08-03 18:15:15.420 ,5,0,0.,4.8,2.,4.8,1.,4.8,0.,4.8
1979-08-03 18:15:20.220 ,5,0,0.,4.8,2.,4.8,0.,4.8,0.,4.8
1979-08-03 18:15:25.020 ,5,0,0.,4.8,1.,4.8,1.,4.8,0.,4.8
1979-08-03 18:15:29.820 ,5,0,0.,4.8,6.,4.8,2.,4.8,0.,4.8
1979-08-03 18:15:34.620 ,5,0,0.,4.8,6.,4.8,1.,4.8,0.,4.8
1979-08-03 18:15:39.420 ,5,0,0.,4.8,5.,4.8,1.,4.8,0.,4.8
1979-08-03 18:15:44.220 ,5,0,0.,4.8,8.,4.8,2.,4.8,0.,4.8
1979-08-03 18:15:49.020 ,5,0,0.,4.8,4.,4.8,1.,4.8,2.,4.8
1979-08-03 18:15:53.820 ,5,0,0.,4.8,6.,4.8,1.,4.8,0.,4.8
1979-08-03 18:15:58.620 ,6,0,0.,4.8,3.,4.8,1.,4.8,0.,4.8
1979-08-03 18:16:03.420 ,6,0,0.,4.8,3.,4.8,0.,4.8,0.,4.8
1979-08-03 18:16:08.220 ,6,0,0.,4.8,6.,4.8,1.,4.8,0.,4.8
1979-08-03 18:16:13.020 ,6,0,0.,4.8,7.,4.8,1.,4.8,0.,4.8
1979-08-03 18:16:17.820 ,6,0,0.,4.8,6.,4.8,1.,4.8,0.,4.8
1979-08-03 18:16:22.620 ,6,0,0.,4.8,4.,4.8,1.,4.8,1.,4.8
1979-08-03 18:16:27.420 ,6,0,0.,4.8,6.,4.8,1.,4.8,0.,4.8
1979-08-03 18:16:32.220 ,6,0,0.,4.8,1.,4.8,3.,4.8,0.,4.8
1979-08-03 18:16:37.020 ,6,0,0.,4.8,2.,4.8,2.,4.8,0.,4.8
1979-08-03 18:16:41.820 ,6,0,0.,4.8,1.,4.8,1.,4.8,2.,4.8
1979-08-03 18:16:46.620 ,7,0,0.,4.8,4.,4.8,0.,4.8,0.,4.8
1979-08-03 18:16:51.420 ,7,0,0.,4.8,5.,4.8,2.,4.8,0.,4.8
1979-08-03 18:16:56.220 ,7,0,0.,4.8,2.,4.8,0.,4.8,0.,4.8
1979-08-03 18:17:01.020 ,7,0,0.,4.8,1.,4.8,0.,4.8,0.,4.8
1979-08-03 18:17:05.820 ,7,0,0.,4.8,1.,4.8,0.,4.8,0.,4.8
1979-08-03 18:17:10.620 ,7,0,0.,4.8,1.,4.8,0.,4.8,0.,4.8
1979-08-03 18:17:15.420 ,7,0,0.,4.8,3.,4.8,0.,4.8,0.,4.8
1979-08-03 18:17:20.220 ,7,0,0.,4.8,1.,4.8,0.,4.8,0.,4.8
1979-08-03 18:17:25.020 ,7,0,0.,4.8,2.,4.8,0.,4.8,0.,4.8
1979-08-03 18:17:29.820 ,7,0,0.,4.8,2.,4.8,0.,4.8,0.,4.8
1979-08-03 18:17:34.620 ,7,0,0.,4.8,1.,4.8,0.,4.8,0.,4.8
1979-08-03 18:17:39.420 ,7,0,0.,4.8,1.,4.8,0.,4.8,0.,4.8
1979-08-03 18:17:44.220 ,7,0,0.,4.8,0.,4.8,0.,4.8,0.,4.8
1979-08-03 18:17:49.020 ,7,0,0.,4.8,0.,4.8,0.,4.8,0.,4.8
1979-08-03 18:17:53.820 ,7,0,0.,4.8,0.,4.8,1.,4.8,1.,4.8
1979-08-03 18:17:58.620 ,7,0,0.,4.8,0.,4.8,1.,4.8,0.,4.8
1979-08-03 18:18:03.420 ,7,0,0.,4.8,0.,4.8,0.,4.8,0.,4.8
1979-08-03 18:18:08.220 ,7,0,0.,4.8,3.,4.8,0.,4.8,0.,4.8
1979-08-03 18:18:13.020 ,7,0,0.,4.8,0.,4.8,0.,4.8,0.,4.8
1979-08-03 18:18:17.820 ,7,0,0.,4.8,0.,4.8,0.,4.8,0.,4.8
1979-08-03 18:18:22.620 ,6,0,0.,4.8,0.,4.8,1.,4.8,0.,4.8
1979-08-03 18:18:27.420 ,6,0,0.,4.8,1.,4.8,0.,4.8,0.,4.8
1979-08-03 18:18:32.220 ,6,0,0.,4.8,6.,4.8,0.,4.8,0.,4.8
1979-08-03 18:18:37.020 ,6,0,0.,4.8,4.,4.8,1.,4.8,0.,4.8
1979-08-03 18:18:41.820 ,6,0,0.,4.8,5.,4.8,1.,4.8,0.,4.8
1979-08-03 18:18:46.620 ,6,0,0.,4.8,7.,4.8,0.,4.8,0.,4.8
1979-08-03 18:18:51.420 ,6,0,0.,4.8,3.,4.8,1.,4.8,0.,4.8
1979-08-03 18:18:56.220 ,6,0,0.,4.8,4.,4.8,1.,4.8,0.,4.8
1979-08-03 18:19:01.020 ,6,0,0.,4.8,5.,4.8,1.,4.8,0.,4.8
1979-08-03 18:19:05.820 ,6,0,0.,4.8,1.,4.8,1.,4.8,0.,4.8
1979-08-03 18:19:10.620 ,5,0,0.,4.8,2.,4.8,1.,4.8,0.,4.8
1979-08-03 18:19:15.420 ,5,0,0.,4.8,8.,4.8,0.,4.8,0.,4.8
1979-08-03 18:19:20.220 ,5,0,0.,4.8,1.,4.8,1.,4.8,2.,4.8
1979-08-03 18:19:25.020 ,5,0,0.,4.8,3.,4.8,2.,4.8,2.,4.8
1979-08-03 18:19:29.820 ,5,0,0.,4.8,3.,4.8,1.,4.8,1.,4.8
1979-08-03 18:19:34.620 ,5,0,0.,4.8,1.,4.8,2.,4.8,0.,4.8
1979-08-03 18:19:39.420 ,5,0,0.,4.8,3.,4.8,1.,4.8,0.,4.8
1979-08-03 18:19:44.220 ,5,0,0.,4.8,4.,4.8,1.,4.8,1.,4.8
1979-08-03 18:19:49.020 ,5,0,0.,4.8,6.,4.8,1.,4.8,0.,4.8
1979-08-03 18:19:53.820 ,5,0,0.,4.8,3.,4.8,2.,4.8,0.,4.8
1979-08-03 18:19:58.620 ,4,0,0.,4.8,2.,4.8,3.,4.8,1.,4.8
1979-08-03 18:20:03.420 ,4,0,0.,4.8,4.,4.8,2.,4.8,2.,4.8
1979-08-03 18:20:08.220 ,4,0,0.,4.8,1.,4.8,1.,4.8,0.,4.8
1979-08-03 18:20:13.020 ,4,0,0.,4.8,3.,4.8,1.,4.8,0.,4.8
1979-08-03 18:20:17.820 ,4,0,0.,4.8,5.,4.8,2.,4.8,0.,4.8
1979-08-03 18:20:22.620 ,4,0,0.,4.8,4.,4.8,0.,4.8,0.,4.8
1979-08-03 18:20:27.420 ,4,0,0.,4.8,2.,4.8,0.,4.8,2.,4.8
1979-08-03 18:20:32.220 ,4,0,0.,4.8,3.,4.8,1.,4.8,0.,4.8
1979-08-03 18:20:37.020 ,4,0,0.,4.8,7.,4.8,4.,4.8,0.,4.8
1979-08-03 18:20:41.820 ,4,0,0.,4.8,2.,4.8,1.,4.8,0.,4.8
1979-08-03 18:20:46.620 ,3,0,0.,4.8,0.,4.8,1.,4.8,1.,4.8
1979-08-03 18:20:51.420 ,3,0,0.,4.8,2.,4.8,1.,4.8,0.,4.8
1979-08-03 18:20:56.220 ,3,0,0.,4.8,4.,4.8,2.,4.8,1.,4.8
1979-08-03 18:21:01.020 ,3,0,0.,4.8,3.,4.8,0.,4.8,1.,4.8
1979-08-03 18:21:05.820 ,3,0,0.,4.8,3.,4.8,2.,4.8,0.,4.8
1979-08-03 18:21:10.620 ,3,0,0.,4.8,2.,4.8,0.,4.8,1.,4.8
1979-08-03 18:21:15.420 ,3,0,0.,4.8,2.,4.8,2.,4.8,1.,4.8
1979-08-03 18:21:20.220 ,3,0,0.,4.8,0.,4.8,1.,4.8,0.,4.8
1979-08-03 18:21:25.020 ,3,0,0.,4.8,0.,4.8,0.,4.8,0.,4.8
1979-08-03 18:21:29.820 ,3,0,0.,4.8,1.,4.8,1.,4.8,2.,4.8
1979-08-03 18:21:34.620 ,2,0,0.,4.8,2.,4.8,0.,4.8,0.,4.8
1979-08-03 18:21:39.420 ,2,0,0.,4.8,2.,4.8,0.,4.8,1.,4.8
1979-08-03 18:21:44.220 ,2,0,0.,4.8,0.,4.8,2.,4.8,0.,4.8
1979-08-03 18:21:49.020 ,2,0,0.,4.8,4.,4.8,0.,4.8,0.,4.8
1979-08-03 18:21:53.820 ,2,0,0.,4.8,3.,4.8,0.,4.8,0.,4.8
1979-08-03 18:21:58.620 ,2,0,0.,4.8,4.,4.8,0.,4.8,0.,4.8
1979-08-03 18:22:03.420 ,2,0,0.,4.8,1.,4.8,1.,4.8,2.,4.8
1979-08-03 18:22:08.220 ,2,0,0.,4.8,1.,4.8,2.,4.8,1.,4.8
1979-08-03 18:22:13.020 ,2,0,0.,4.8,5.,4.8,0.,4.8,0.,4.8
1979-08-03 18:22:17.820 ,2,0,0.,4.8,0.,4.8,0.,4.8,0.,4.8
1979-08-03 18:22:22.620 ,1,0,0.,4.8,2.,4.8,1.,4.8,1.,4.8
1979-08-03 18:22:27.420 ,1,0,0.,4.8,3.,4.8,0.,4.8,0.,4.8
1979-08-03 18:22:32.220 ,1,0,0.,4.8,5.,4.8,2.,4.8,0.,4.8
1979-08-03 18:22:37.020 ,1,0,0.,4.8,3.,4.8,1.,4.8,1.,4.8
1979-08-03 18:22:41.820 ,1,0,0.,4.8,7.,4.8,1.,4.8,0.,4.8
1979-08-03 18:22:46.620 ,1,0,0.,4.8,7.,4.8,1.,4.8,0.,4.8
1979-08-03 18:22:51.420 ,1,0,0.,4.8,3.,4.8,0.,4.8,0.,4.8
1979-08-03 18:22:56.220 ,1,0,0.,4.8,8.,4.8,2.,4.8,1.,4.8
1979-08-03 18:23:01.020 ,1,0,0.,4.8,6.,4.8,0.,4.8,0.,4.8
1979-08-03 18:23:05.820 ,1,0,0.,4.8,7.,4.8,2.,4.8,0.,4.8
1979-08-03 18:23:10.620 ,0,0,0.,4.8,4.,4.8,2.,4.8,0.,4.8
1979-08-03 18:23:15.420 ,0,0,0.,4.8,5.,4.8,1.,4.8,1.,4.8
1979-08-03 18:23:20.220 ,0,0,0.,4.8,8.,4.8,1.,4.8,0.,4.8
1979-08-03 18:23:25.020 ,0,0,0.,4.8,5.,4.8,1.,4.8,0.,4.8
1979-08-03 18:23:29.820 ,0,0,0.,4.8,6.,4.8,1.,4.8,0.,4.8
1979-08-03 18:23:34.620 ,0,0,0.,4.8,10.,4.8,1.,4.8,1.,4.8
1979-08-03 18:23:39.420 ,0,0,0.,4.8,5.,4.8,2.,4.8,1.,4.8
1979-08-03 18:23:44.220 ,0,0,0.,4.8,7.,4.8,4.,4.8,1.,4.8
1979-08-03 18:23:49.020 ,0,0,0.,4.8,5.,4.8,1.,4.8,0.,4.8
1979-08-03 18:23:53.820 ,0,0,0.,4.8,6.,4.8,0.,4.8,1.,4.8
1979-08-03 18:23:58.620 ,0,0,0.,4.8,13.,4.8,1.,4.8,1.,4.8
1979-08-03 18:24:03.420 ,0,0,0.,4.8,7.,4.8,1.,4.8,0.,4.8
1979-08-03 18:24:08.220 ,0,0,0.,4.8,3.,4.8,1.,4.8,1.,4.8
1979-08-03 18:24:13.020 ,0,0,0.,4.8,8.,4.8,3.,4.8,0.,4.8
1979-08-03 18:24:17.820 ,0,0,0.,4.8,11.,4.8,0.,4.8,0.,4.8
1979-08-03 18:24:22.620 ,0,0,0.,4.8,6.,4.8,0.,4.8,0.,4.8
1979-08-03 18:24:27.420 ,0,0,0.,4.8,4.,4.8,2.,4.8,0.,4.8
1979-08-03 18:24:32.220 ,0,0,0.,4.8,3.,4.8,0.,4.8,0.,4.8
1979-08-03 18:24:37.020 ,0,0,0.,4.8,8.,4.8,0.,4.8,0.,4.8
1979-08-03 18:24:41.820 ,0,0,0.,4.8,10.,4.8,2.,4.8,1.,4.8
1979-08-03 18:24:46.620 ,1,0,0.,4.8,7.,4.8,2.,4.8,2.,4.8
1979-08-03 18:24:51.420 ,1,0,0.,4.8,6.,4.8,6.,4.8,1.,4.8
1979-08-03 18:24:56.220 ,1,0,0.,4.8,4.,4.8,0.,4.8,1.,4.8
1979-08-03 18:25:01.020 ,1,0,0.,4.8,4.,4.8,3.,4.8,0.,4.8
1979-08-03 18:25:05.820 ,1,0,0.,4.8,2.,4.8,0.,4.8,0.,4.8
1979-08-03 18:25:10.620 ,1,0,0.,4.8,6.,4.8,4.,4.8,0.,4.8
1979-08-03 18:25:15.420 ,1,0,0.,4.8,6.,4.8,0.,4.8,0.,4.8
1979-08-03 18:25:20.220 ,1,0,0.,4.8,9.,4.8,1.,4.8,0.,4.8
1979-08-03 18:25:25.020 ,1,0,0.,4.8,5.,4.8,0.,4.8,0.,4.8
1979-08-03 18:25:29.820 ,1,0,0.,4.8,5.,4.8,2.,4.8,0.,4.8
1979-08-03 18:25:34.620 ,2,0,0.,4.8,1.,4.8,0.,4.8,1.,4.8
1979-08-03 18:25:39.420 ,2,0,0.,4.8,7.,4.8,0.,4.8,1.,4.8
1979-08-03 18:25:44.220 ,2,0,0.,4.8,3.,4.8,0.,4.8,0.,4.8
1979-08-03 18:25:49.020 ,2,0,0.,4.8,3.,4.8,1.,4.8,0.,4.8
1979-08-03 18:25:53.820 ,2,0,0.,4.8,2.,4.8,0.,4.8,0.,4.8
1979-08-03 18:25:58.620 ,2,0,0.,4.8,3.,4.8,1.,4.8,0.,4.8
1979-08-03 18:26:03.420 ,2,0,0.,4.8,2.,4.8,1.,4.8,0.,4.8
1979-08-03 18:26:08.220 ,2,0,0.,4.8,2.,4.8,2.,4.8,0.,4.8
1979-08-03 18:26:13.020 ,2,0,0.,4.8,5.,4.8,0.,4.8,0.,4.8
1979-08-03 18:26:17.820 ,2,0,0.,4.8,6.,4.8,2.,4.8,0.,4.8
1979-08-03 18:26:22.620 ,3,0,0.,4.8,1.,4.8,0.,4.8,1.,4.8
1979-08-03 18:26:27.420 ,3,0,0.,4.8,3.,4.8,1.,4.8,0.,4.8
1979-08-03 18:26:32.220 ,3,0,0.,4.8,3.,4.8,0.,4.8,2.,4.8
1979-08-03 18:26:37.020 ,3,0,0.,4.8,4.,4.8,1.,4.8,0.,4.8
1979-08-03 18:26:41.820 ,3,0,0.,4.8,2.,4.8,0.,4.8,0.,4.8
1979-08-03 18:26:46.620 ,3,0,0.,4.8,1.,4.8,0.,4.8,0.,4.8
1979-08-03 18:26:51.420 ,3,0,0.,4.8,4.,4.8,0.,4.8,0.,4.8
1979-08-03 18:26:56.220 ,3,0,0.,4.8,0.,4.8,0.,4.8,1.,4.8
1979-08-03 18:27:01.020 ,3,0,0.,4.8,1.,4.8,0.,4.8,2.,4.8
1979-08-03 18:27:05.820 ,3,0,0.,4.8,2.,4.8,0.,4.8,0.,4.8
1979-08-03 18:27:10.620 ,4,0,0.,4.8,6.,4.8,0.,4.8,1.,4.8
1979-08-03 18:27:15.420 ,4,0,0.,4.8,3.,4.8,0.,4.8,0.,4.8
1979-08-03 18:27:20.220 ,4,0,0.,4.8,5.,4.8,1.,4.8,1.,4.8
1979-08-03 18:27:25.020 ,4,0,0.,4.8,1.,4.8,0.,4.8,1.,4.8
1979-08-03 18:27:29.820 ,4,0,0.,4.8,2.,4.8,0.,4.8,1.,4.8
1979-08-03 18:27:34.620 ,4,0,0.,4.8,3.,4.8,0.,4.8,1.,4.8
1979-08-03 18:27:39.420 ,4,0,0.,4.8,2.,4.8,0.,4.8,0.,4.8
1979-08-03 18:27:44.220 ,4,0,0.,4.8,1.,4.8,1.,4.8,0.,4.8
1979-08-03 18:27:49.020 ,4,0,0.,4.8,2.,4.8,0.,4.8,0.,4.8
1979-08-03 18:27:53.820 ,4,0,0.,4.8,4.,4.8,1.,4.8,0.,4.8
1979-08-03 18:27:58.620 ,5,0,0.,4.8,0.,4.8,1.,4.8,1.,4.8
1979-08-03 18:28:03.420 ,5,0,0.,4.8,4.,4.8,0.,4.8,0.,4.8
1979-08-03 18:28:08.220 ,5,0,0.,4.8,1.,4.8,1.,4.8,1.,4.8
1979-08-03 18:28:13.020 ,5,0,0.,4.8,4.,4.8,1.,4.8,0.,4.8
1979-08-03 18:28:17.820 ,5,0,0.,4.8,3.,4.8,3.,4.8,0.,4.8
1979-08-03 18:28:22.620 ,5,0,0.,4.8,2.,4.8,2.,4.8,1.,4.8
1979-08-03 18:28:27.420 ,5,0,0.,4.8,2.,4.8,0.,4.8,1.,4.8
1979-08-03 18:28:32.220 ,5,0,0.,4.8,2.,4.8,1.,4.8,0.,4.8
1979-08-03 18:28:37.020 ,5,0,0.,4.8,3.,4.8,0.,4.8,1.,4.8
1979-08-03 18:28:41.820 ,5,0,0.,4.8,2.,4.8,1.,4.8,0.,4.8
1979-08-03 18:28:46.620 ,6,0,0.,4.8,3.,4.8,0.,4.8,1.,4.8
1979-08-03 18:28:51.420 ,6,0,0.,4.8,3.,4.8,1.,4.8,0.,4.8
1979-08-03 18:28:56.220 ,6,0,0.,4.8,4.,4.8,0.,4.8,0.,4.8
1979-08-03 18:29:01.020 ,6,0,0.,4.8,3.,4.8,1.,4.8,0.,4.8
1979-08-03 18:29:05.820 ,6,0,0.,4.8,3.,4.8,1.,4.8,1.,4.8
1979-08-03 18:29:10.620 ,6,0,0.,4.8,1.,4.8,0.,4.8,0.,4.8
1979-08-03 18:29:15.420 ,6,0,0.,4.8,1.,4.8,1.,4.8,0.,4.8
1979-08-03 18:29:20.220 ,6,0,0.,4.8,2.,4.8,1.,4.8,3.,4.8
1979-08-03 18:29:25.020 ,6,0,0.,4.8,4.,4.8,1.,4.8,0.,4.8
1979-08-03 18:29:29.820 ,6,0,0.,4.8,5.,4.8,0.,4.8,1.,4.8
1979-08-03 18:29:34.620 ,7,0,0.,4.8,3.,4.8,0.,4.8,0.,4.8
1979-08-03 18:29:39.420 ,7,0,0.,4.8,4.,4.8,2.,4.8,0.,4.8
1979-08-03 18:29:44.220 ,7,0,0.,4.8,0.,4.8,0.,4.8,0.,4.8
1979-08-03 18:29:49.020 ,7,0,0.,4.8,0.,4.8,0.,4.8,0.,4.8
1979-08-03 18:29:53.820 ,7,0,0.,4.8,1.,4.8,0.,4.8,0.,4.8
1979-08-03 18:29:58.620 ,7,0,0.,4.8,1.,4.8,0.,4.8,0.,4.8
1979-08-03 18:30:03.420 ,7,0,0.,4.8,0.,4.8,0.,4.8,0.,4.8
1979-08-03 18:30:08.220 ,7,0,0.,4.8,1.,4.8,1.,4.8,0.,4.8
1979-08-03 18:30:13.020 ,7,0,0.,4.8,0.,4.8,0.,4.8,0.,4.8
1979-08-03 18:30:17.820 ,7,0,0.,4.8,1.,4.8,0.,4.8,0.,4.8
1979-08-03 18:30:22.620 ,7,0,0.,4.8,0.,4.8,0.,4.8,0.,4.8
1979-08-03 18:30:27.420 ,7,0,0.,4.8,1.,4.8,0.,4.8,0.,4.8
1979-08-03 18:30:32.220 ,7,0,0.,4.8,1.,4.8,0.,4.8,0.,4.8
1979-08-03 18:30:37.020 ,7,0,0.,4.8,1.,4.8,0.,4.8,0.,4.8
1979-08-03 18:30:41.820 ,7,0,0.,4.8,0.,4.8,0.,4.8,0.,4.8
1979-08-03 18:30:46.620 ,7,0,0.,4.8,1.,4.8,0.,4.8,0.,4.8
1979-08-03 18:30:51.420 ,7,0,0.,4.8,0.,4.8,0.,4.8,0.,4.8
1979-08-03 18:30:56.220 ,7,0,0.,4.8,1.,4.8,1.,4.8,0.,4.8
1979-08-03 18:31:01.020 ,7,0,0.,4.8,1.,4.8,0.,4.8,0.,4.8
1979-08-03 18:31:05.820 ,7,0,0.,4.8,0.,4.8,0.,4.8,0.,4.8
1979-08-03 18:31:10.620 ,6,0,0.,4.8,0.,4.8,0.,4.8,0.,4.8
1979-08-03 18:31:15.420 ,6,0,0.,4.8,0.,4.8,0.,4.8,0.,4.8
1979-08-03 18:31:20.220 ,6,0,0.,4.8,5.,4.8,0.,4.8,0.,4.8
1979-08-03 18:31:25.020 ,6,0,0.,4.8,1.,4.8,1.,4.8,1.,4.8
1979-08-03 18:31:29.820 ,6,0,0.,4.8,4.,4.8,1.,4.8,1.,4.8
1979-08-03 18:31:34.620 ,6,0,0.,4.8,2.,4.8,2.,4.8,0.,4.8
1979-08-03 18:31:39.420 ,6,0,0.,4.8,4.,4.8,0.,4.8,0.,4.8
1979-08-03 18:31:44.220 ,6,0,0.,4.8,2.,4.8,1.,4.8,0.,4.8
1979-08-03 18:31:49.020 ,6,0,0.,4.8,5.,4.8,3.,4.8,2.,4.8
1979-08-03 18:31:53.820 ,6,0,0.,4.8,3.,4.8,1.,4.8,2.,4.8
1979-08-03 18:31:58.620 ,5,0,0.,4.8,3.,4.8,1.,4.8,0.,4.8
1979-08-03 18:32:03.420 ,5,0,0.,4.8,4.,4.8,2.,4.8,0.,4.8
1979-08-03 18:32:08.220 ,5,0,0.,4.8,1.,4.8,0.,4.8,2.,4.8
1979-08-03 18:32:13.020 ,5,0,0.,4.8,4.,4.8,2.,4.8,0.,4.8
1979-08-03 18:32:17.820 ,5,0,0.,4.8,1.,4.8,0.,4.8,0.,4.8
1979-08-03 18:32:22.620 ,5,0,0.,4.8,3.,4.8,2.,4.8,0.,4.8
1979-08-03 18:32:27.420 ,5,0,0.,4.8,0.,4.8,0.,4.8,0.,4.8
1979-08-03 18:32:32.220 ,5,0,0.,4.8,5.,4.8,1.,4.8,1.,4.8
1979-08-03 18:32:37.020 ,5,0,0.,4.8,1.,4.8,1.,4.8,0.,4.8
1979-08-03 18:32:41.820 ,5,0,0.,4.8,2.,4.8,0.,4.8,0.,4.8
1979-08-03 18:32:46.620 ,4,0,0.,4.8,2.,4.8,0.,4.8,0.,4.8
1979-08-03 18:32:51.420 ,4,0,0.,4.8,2.,4.8,0.,4.8,2.,4.8
1979-08-03 18:32:56.220 ,4,0,0.,4.8,4.,4.8,3.,4.8,1.,4.8
1979-08-03 18:33:01.020 ,4,0,0.,4.8,0.,4.8,3.,4.8,0.,4.8
1979-08-03 18:33:05.820 ,4,0,0.,4.8,2.,4.8,0.,4.8,0.,4.8
1979-08-03 18:33:10.620 ,4,0,0.,4.8,2.,4.8,0.,4.8,0.,4.8